Location: San Ignacio Observatory
(34.9291°N, 104.9425°W)
Time: 16:07:40
(UTC-06:00)

Tiangong 2 - Visible Passes

Search period start: 17 October 2018 00:00
Search period end: 27 October 2018 00:00
Orbit: 384 x 393 km, 42.8° (Epoch: 17 October)

Date Brightness Start Highest point End Pass type
(mag) Time Alt. Az. Time Alt. Az. Time Alt. Az.
17 Oct 3.6 05:04:11 22° ENE 05:04:11 22° ENE 05:05:45 10° E visible
17 Oct 1.4 06:36:43 10° WNW 06:39:49 50° SSW 06:42:55 10° SE visible
18 Oct 1.0 05:41:12 70° NW 05:41:31 83° NNE 05:44:42 10° ESE visible
19 Oct 4.6 04:45:59 12° E 04:45:59 12° E 04:46:14 10° E visible
19 Oct 2.5 06:18:19 17° WSW 06:19:50 24° SW 06:22:28 10° SSE visible
20 Oct 3.0 05:23:11 24° SSE 05:23:11 24° SSE 05:24:40 10° SE visible
21 Oct 3.6 06:00:28 11° SSW 06:00:28 11° SSW 06:00:56 10° SSW visible
25 Oct 3.9 20:13:16 10° SW 20:13:54 15° SW 20:13:54 15° SW visible
26 Oct 2.3 19:15:22 10° SSW 19:18:02 25° SE 19:18:37 24° SE visible
